Stations météo

Publicité
Biscarosse, France (7503): Température de l'air & dewpoint: 17.11.2017 12:00:00 - 23.11.2017 12:00:00 (CET)Biscarosse, France (7503): Température de l'air 5cm: 17.11.2017 12:00:00 - 23.11.2017 12:00:00 (CET)Biscarosse, France (7503): Température de l'air -20cm & Température de l'air -100cm: 17.11.2017 12:00:00 - 23.11.2017 12:00:00 (CET)Biscarosse, France (7503): Vitesse du vent & gusts: 17.11.2017 12:00:00 - 23.11.2017 12:00:00 (CET)Biscarosse, France (7503): Direction du vent: 17.11.2017 12:00:00 - 23.11.2017 12:00:00 (CET)Biscarosse, France (7503): reduced air pressure: 17.11.2017 12:00:00 - 23.11.2017 12:00:00 (CET)Biscarosse, France (7503): visibility: 17.11.2017 12:00:00 - 23.11.2017 12:00:00 (CET)Biscarosse, France (7503): Ensoleillement: 17.11.2017 12:00:00 - 23.11.2017 12:00:00 (CET)Biscarosse, France (7503): Quantités de précipitations: 17.11.2017 12:00:00 - 23.11.2017 12:00:00 (CET)
Date & Time tt [°C] td [°C] tt 5cm [°C] tt -20cm [°C] tt -100cm [°C] ff [km/h] ff [knt] fx [km/h] fx [knt] dd ppp [hPa] vv [km] sd [min] rr [mm]
23.11.2017 12:00:00 19,2 11,0 19,0 11,7 13,5 17 9 23 12 SSW 1012,8 9 39 0,0
23.11.2017 11:00:00 18,1 10,7 17,5 11,6 13,6 16 9 23 12 S 1012,3 25 29 0,0
23.11.2017 10:00:00 16,7 11,2 16,1 11,6 13,5 19 11 28 15 SSW 1011,8 8 0 0,0
23.11.2017 09:00:00 16,3 10,6 14,3 11,5 13,5 20 11 30 16 SSW 1010,9 9 16 0,0
23.11.2017 08:00:00 16,1 4,8 14,8 11,6 13,5 16 9 39 21 SSW 1010,0 10 0 0,0
23.11.2017 07:00:00 17,2 0,8 15,9 11,6 13,5 19 10 34 19 S 1009,1 20 0 0,0
23.11.2017 06:00:00 17,9 0,5 16,5 11,5 13,5 22 12 41 22 S 1008,5 20 0 0,0
23.11.2017 05:00:00 17,9 2,6 16,7 11,4 13,5 24 13 44 24 S 1008,1 20 0 0,0
23.11.2017 04:00:00 17,5 5,4 16,7 11,3 13,5 26 14 50 27 S 1007,7 20 0 0,0
23.11.2017 03:00:00 18,4 3,4 17,7 11,2 13,5 29 15 54 29 S 1007,5 20 0 0,0
23.11.2017 02:00:00 19,0 -0,4 16,8 11,1 13,5 32 17 63 34 S 1006,7 20 0 0,0
23.11.2017 01:00:00 17,6 0,3 14,6 11,1 13,5 26 14 50 27 S 1006,8 20 0 0,0
23.11.2017 00:00:00 15,4 2,9 14,5 11,0 13,4 21 12 39 21 SSE 1006,7 20 0 0,0
22.11.2017 23:00:00 17,0 1,4 15,6 11,0 13,5 24 13 46 25 S 1006,9 20 0 0,0
22.11.2017 22:00:00 16,3 3,0 14,3 11,0 13,5 20 11 46 25 SSE 1007,0 20 0 0,0
22.11.2017 21:00:00 15,1 4,5 13,7 11,0 13,5 19 11 35 19 SSE 1007,0 20 0 0,0
22.11.2017 20:00:00 15,1 5,6 13,9 10,9 13,5 18 10 33 18 SE 1007,4 20 0 0,0
22.11.2017 19:00:00 16,2 6,0 14,8 10,9 13,5 16 8 31 17 SE 1007,8 20 0 0,0
22.11.2017 18:00:00 17,1 3,4 14,9 10,7 13,5 11 6 20 11 ESE 1008,0 20 0 0,0
22.11.2017 17:00:00 19,7 2,1 18,4 10,5 13,5 12 6 37 20 SSE 1008,0 20 25 0,0
22.11.2017 16:00:00 21,4 0,5 21,7 10,1 13,5 21 11 40 22 S 1008,0 20 60 0,0
22.11.2017 15:00:00 21,8 0,9 21,6 9,7 13,5 26 14 44 24 S 1008,5 20 60 0,0
22.11.2017 14:00:00 21,3 1,5 23,3 9,4 13,5 22 12 36 20 S 1009,1 20 60 0,0
22.11.2017 13:00:00 18,6 6,4 19,6 9,1 13,5 13 7 24 13 SSE 1009,9 20 60 0,0
22.11.2017 12:00:00 15,7 5,0 15,9 8,8 13,5 13 7 29 16 SE 1010,8 20 60 0,0
22.11.2017 11:00:00 13,2 4,1 12,6 8,8 13,5 16 9 26 14 SE 1011,3 20 60 0,0
22.11.2017 10:00:00 10,8 4,3 8,1 8,8 13,5 14 8 27 15 SE 1011,6 19 60 0,0
22.11.2017 09:00:00 8,9 3,1 6,6 8,9 13,5 16 9 29 16 SE 1011,8 20 25 0,0
22.11.2017 08:00:00 7,6 3,4 5,8 9,1 13,5 16 8 27 14 SE 1012,0 15 0 0,0
22.11.2017 07:00:00 7,2 3,4 5,9 9,2 13,5 15 8 24 13 SE 1012,4 17 0 0,0
22.11.2017 06:00:00 7,4 4,5 5,9 9,4 13,5 14 8 25 14 SE 1012,9 10 0 0,0
22.11.2017 05:00:00 7,6 4,7 6,0 9,5 13,5 13 7 23 13 ESE 1013,6 16 0 0,0
22.11.2017 04:00:00 7,4 5,4 5,7 9,7 13,5 13 7 27 15 ESE 1014,3 20 0 0,0
22.11.2017 03:00:00 6,9 5,7 5,5 9,9 13,5 18 10 27 15 ESE 1015,0 20 0 0,0
22.11.2017 02:00:00 7,0 6,1 - - - 16 9 26 14 E 1015,6 17 - 0,0
22.11.2017 01:00:00 7,1 6,5 6,1 10,1 13,5 16 8 25 14 E 1016,2 20 0 0,0
22.11.2017 00:00:00 8,0 7,4 7,1 10,3 13,5 - - 24 13 - 1016,6 11 0 0,0
21.11.2017 23:00:00 9,2 8,6 8,1 10,4 13,5 12 7 18 10 E 1017,1 14 0 0,0
21.11.2017 22:00:00 10,4 9,8 8,5 10,5 13,5 11 6 17 9 E 1017,4 14 0 0,0
21.11.2017 21:00:00 11,0 10,4 8,7 10,6 13,5 10 6 14 7 E 1017,6 1,2 0 0,0
21.11.2017 20:00:00 11,7 10,9 8,2 10,7 13,5 6 3 7 4 E 1017,8 6 0 0,0
21.11.2017 19:00:00 11,9 11,0 9,5 10,7 13,5 6 3 7 4 ESE 1018,1 10 0 0,0
21.11.2017 18:00:00 13,0 11,6 10,6 10,6 13,5 3 1 6 4 ESE 1018,5 12 7 0,0
21.11.2017 17:00:00 15,1 12,2 14,1 10,3 13,5 4 2 12 7 S 1018,6 12 41 0,0
21.11.2017 16:00:00 16,5 12,6 17,6 10,0 13,6 9 5 17 9 SSW 1018,9 18 58 0,0
21.11.2017 15:00:00 16,5 13,0 17,7 9,5 13,6 14 7 20 11 SSW 1019,0 16 34 0,0
21.11.2017 14:00:00 16,8 12,9 20,1 9,1 13,6 14 8 23 12 S 1019,5 15 56 0,0
21.11.2017 13:00:00 16,1 12,6 20,1 8,7 13,6 16 9 22 12 S 1020,1 17 60 0,0
21.11.2017 12:00:00 15,6 12,7 15,8 8,4 13,6 13 7 17 9 SSW 1020,9 13 52 0,0
21.11.2017 11:00:00 12,2 10,8 10,9 8,2 13,6 6 3 13 7 SSE 1021,1 17 60 0,0
21.11.2017 10:00:00 8,5 8,1 5,8 8,2 13,6 9 5 14 8 SE 1021,1 9 45 0,0
21.11.2017 09:00:00 5,9 5,5 3,4 8,3 13,6 10 5 16 8 SE 1020,9 6 27 0,0
21.11.2017 08:00:00 4,1 3,7 3,3 8,4 13,6 8 5 13 7 ESE 1020,8 4,2 0 0,0
21.11.2017 07:00:00 4,1 3,5 3,4 8,5 13,6 8 5 13 7 ESE 1020,3 1,8 0 0,0
21.11.2017 06:00:00 4,5 3,9 3,7 8,7 13,6 9 5 13 7 ESE 1020,4 5 0 0,0
21.11.2017 05:00:00 4,8 4,1 3,8 8,8 13,6 9 5 16 8 SE 1020,6 9 0 0,0
21.11.2017 04:00:00 4,6 3,7 4,0 8,9 13,6 10 5 19 10 ESE 1020,8 12 0 0,0
21.11.2017 03:00:00 5,2 4,3 4,5 9,1 13,6 11 6 16 9 ESE 1021,1 17 0 0,0
21.11.2017 02:00:00 5,6 4,7 4,8 9,2 13,6 11 6 21 11 ESE 1021,1 20 0 0,0
21.11.2017 01:00:00 6,0 5,0 5,3 9,4 13,6 13 7 24 13 ESE 1021,6 20 0 0,0
21.11.2017 00:00:00 6,0 5,1 5,4 9,5 13,6 14 8 24 13 ESE 1021,8 19 0 0,0
20.11.2017 23:00:00 6,4 5,3 5,8 9,7 13,6 9 5 23 13 ESE 1022,0 20 0 0,0
20.11.2017 22:00:00 6,7 5,6 6,2 9,8 13,6 15 8 25 14 E 1022,1 20 0 0,0
20.11.2017 21:00:00 7,3 6,1 6,6 9,9 13,6 14 7 28 15 E 1022,3 20 0 0,0
20.11.2017 20:00:00 8,3 6,8 7,4 10,0 13,7 11 6 19 11 E 1022,6 20 0 0,0
20.11.2017 19:00:00 9,4 7,5 8,5 10,0 13,7 10 5 18 10 E 1022,3 20 0 0,0
20.11.2017 18:00:00 10,3 7,5 9,2 10,0 13,7 9 5 16 9 E 1022,2 20 6 0,0
20.11.2017 17:00:00 11,6 8,3 11,2 9,8 13,7 6 3 16 9 E 1022,0 20 26 0,0
20.11.2017 16:00:00 12,5 8,4 13,5 9,5 13,7 8 4 26 14 E 1022,3 25 48 0,0
20.11.2017 15:00:00 12,5 8,6 14,0 9,2 13,7 12 7 31 17 E 1022,9 20 60 0,0
20.11.2017 14:00:00 10,9 7,8 14,1 8,9 13,7 14 8 29 16 E 1023,7 20 58 0,0
20.11.2017 13:00:00 11,5 8,4 15,7 8,5 13,7 12 7 33 18 E 1024,6 20 60 0,0
20.11.2017 12:00:00 11,4 9,0 11,8 8,2 13,8 11 6 26 14 E 1025,2 20 58 0,0
20.11.2017 11:00:00 8,8 8,2 8,1 8,1 13,8 15 8 28 15 E 1025,3 18 25 0,0
20.11.2017 10:00:00 7,1 6,7 6,4 7,9 13,8 14 8 30 16 ESE 1025,2 3,5 0 0,0
20.11.2017 09:00:00 6,3 5,7 4,9 8,0 13,8 11 6 29 16 ESE 1025,4 0,7 0 0,0
20.11.2017 08:00:00 4,9 4,2 3,1 8,1 13,8 8 5 21 11 ESE 1025,5 0,6 0 0,0
20.11.2017 07:00:00 3,6 2,4 3,0 8,2 13,8 8 5 20 11 E 1025,2 8 0 0,0
20.11.2017 06:00:00 5,1 3,8 4,0 8,3 13,8 9 5 17 9 ESE 1025,2 12 0 0,0
20.11.2017 05:00:00 5,0 3,7 4,2 8,4 13,8 2 1 14 8 SE 1025,3 14 0 0,0
20.11.2017 04:00:00 5,1 3,8 4,1 8,5 13,8 8 4 16 9 ESE 1025,3 15 0 0,0
20.11.2017 03:00:00 5,3 3,9 3,8 8,7 13,8 8 4 11 6 E 1025,6 13 0 0,0
20.11.2017 02:00:00 5,3 3,6 3,9 8,8 13,8 8 4 11 6 E 1026,1 14 0 0,0
20.11.2017 01:00:00 5,7 3,9 4,2 8,9 13,8 7 4 14 8 E 1026,7 17 0 0,0
20.11.2017 00:00:00 5,8 3,8 4,5 9,1 13,8 10 5 16 9 E 1026,9 18 0 0,0
19.11.2017 23:00:00 6,2 4,2 4,6 9,2 13,8 11 6 17 9 E 1027,0 20 0 0,0
19.11.2017 22:00:00 6,6 4,3 5,0 9,4 13,9 11 6 16 9 E 1027,1 18 0 0,0
19.11.2017 21:00:00 7,1 4,6 5,5 9,5 13,9 10 6 15 8 E 1026,5 19 0 0,0
19.11.2017 20:00:00 7,3 4,6 5,2 9,7 13,9 10 5 13 7 E 1026,2 20 0 0,0
19.11.2017 19:00:00 7,9 5,0 5,5 9,7 13,9 9 5 11 6 E 1025,8 20 0 0,0
19.11.2017 18:00:00 8,8 4,8 6,9 9,6 13,9 5 3 6 3 ENE 1025,8 20 0 0,0
19.11.2017 17:00:00 12,9 4,3 11,0 9,5 13,9 4 2 9 5 NE 1025,6 20 29 0,0
19.11.2017 16:00:00 13,4 3,2 14,0 9,1 13,9 5 3 13 7 N 1025,6 20 60 0,0
19.11.2017 15:00:00 13,0 4,2 13,9 8,9 14,0 7 4 14 8 NE 1025,6 20 60 0,0
19.11.2017 14:00:00 12,5 4,9 17,0 8,6 14,0 9 5 18 10 ENE 1026,1 20 60 0,0
19.11.2017 13:00:00 11,6 4,6 15,8 8,2 13,9 9 5 15 8 ENE 1026,9 20 60 0,0
19.11.2017 12:00:00 10,2 4,8 13,6 8,0 14,0 8 5 14 8 ENE 1027,1 20 60 0,0
19.11.2017 11:00:00 8,6 5,3 7,8 7,9 14,0 9 5 16 9 E 1027,2 17 60 0,0
19.11.2017 10:00:00 5,9 4,9 2,8 7,9 14,0 8 4 14 7 E 1026,7 13 60 0,0
19.11.2017 09:00:00 3,4 2,8 1,5 8,1 14,0 11 6 14 8 E 1026,4 6 29 0,0
19.11.2017 08:00:00 2,6 2,0 1,5 8,2 14,0 10 5 14 7 E 1026,0 3,7 0 0,0
19.11.2017 07:00:00 3,3 2,7 2,0 8,4 14,0 10 6 15 8 E 1025,6 3,4 0 0,0
19.11.2017 06:00:00 4,2 3,6 3,0 8,5 14,1 11 6 17 9 E 1025,5 0,3 0 0,0
19.11.2017 05:00:00 4,8 4,1 2,7 8,7 14,1 11 6 16 9 E 1025,5 2,9 0 0,0
19.11.2017 04:00:00 4,5 3,8 2,6 8,9 14,0 11 6 16 8 E 1025,4 3,4 0 0,0
19.11.2017 03:00:00 5,6 4,9 1,7 9,0 14,1 10 5 13 7 E 1025,5 7 0 0,0
19.11.2017 02:00:00 4,8 3,9 1,9 9,2 14,1 10 5 11 6 E 1025,6 8 0 0,2
19.11.2017 01:00:00 4,7 3,8 2,3 9,5 14,1 7 4 7 4 E 1025,6 8 0 0,0
19.11.2017 00:00:00 5,4 4,2 2,7 9,7 14,1 6 3 8 4 E 1025,9 11 0 0,0
18.11.2017 23:00:00 5,7 4,2 3,1 9,8 14,1 8 4 13 7 ENE 1025,9 19 0 0,0
18.11.2017 22:00:00 7,3 5,8 5,6 10,0 14,1 9 5 14 7 ENE 1025,9 20 0 0,0
18.11.2017 21:00:00 7,3 5,6 5,1 10,2 14,1 5 3 8 4 ENE 1025,8 20 0 0,0
18.11.2017 20:00:00 8,1 5,9 6,7 10,3 14,1 7 4 8 5 NE 1025,7 19 0 0,0
18.11.2017 19:00:00 8,7 6,1 7,5 10,4 14,1 8 4 10 6 NE 1025,5 20 0 0,0
18.11.2017 18:00:00 9,5 6,0 8,2 10,3 14,1 8 4 13 7 NE 1025,4 20 10 0,0
18.11.2017 17:00:00 12,0 6,7 11,5 10,1 14,1 6 3 14 8 NNE 1025,2 20 36 0,0
18.11.2017 16:00:00 13,0 7,9 13,9 9,8 14,1 12 6 16 9 NNW 1024,8 18 60 0,0
18.11.2017 15:00:00 12,5 7,6 14,4 9,6 14,2 11 6 18 10 NNW 1024,9 17 60 0,0
18.11.2017 14:00:00 12,9 6,0 18,1 9,3 14,2 7 4 14 8 NE 1025,2 20 60 0,0
18.11.2017 13:00:00 11,5 6,8 14,4 9,0 14,2 9 5 27 15 ENE 1025,7 20 60 0,0
18.11.2017 12:00:00 9,5 5,7 11,9 8,8 14,1 13 7 31 17 E 1025,8 20 60 0,0
18.11.2017 11:00:00 8,4 5,0 9,8 8,8 14,2 16 9 32 18 E 1025,9 20 60 0,0
18.11.2017 10:00:00 6,9 4,4 5,4 8,8 14,2 16 8 29 16 E 1025,8 19 60 0,0
18.11.2017 09:00:00 5,5 4,3 3,9 8,9 14,2 15 8 27 14 ENE 1025,4 12 31 0,0
18.11.2017 08:00:00 4,4 3,2 3,8 9,1 14,2 15 8 23 12 E 1024,9 11 0 0,0
18.11.2017 07:00:00 4,9 3,6 4,4 9,3 14,2 16 9 28 15 ENE 1024,6 16 0 0,0
18.11.2017 06:00:00 5,4 3,7 4,7 9,4 14,2 18 10 28 15 E 1024,1 18 0 0,0
18.11.2017 05:00:00 5,7 3,9 5,1 9,6 14,2 17 9 27 14 E 1024,2 20 0 0,0
18.11.2017 04:00:00 6,1 4,1 5,6 9,7 14,2 17 9 26 14 ENE 1024,4 20 0 0,0
18.11.2017 03:00:00 6,7 4,4 6,1 9,9 14,2 10 5 16 9 ENE 1024,3 20 0 0,0
18.11.2017 02:00:00 6,9 4,6 6,3 10,0 14,2 11 6 19 10 ENE 1023,8 20 0 0,0
18.11.2017 01:00:00 7,4 4,9 6,2 10,2 14,2 10 5 15 8 ENE 1024,0 20 0 0,0
18.11.2017 00:00:00 7,7 4,6 6,5 10,4 14,2 5 3 13 7 NNE 1024,2 20 0 0,0
17.11.2017 23:00:00 8,7 5,1 7,1 10,5 14,2 7 4 15 8 NE 1024,3 20 0 0,0
17.11.2017 22:00:00 9,6 5,2 8,3 10,7 14,2 9 5 16 9 ENE 1024,0 20 0 0,0
17.11.2017 21:00:00 9,9 5,3 8,8 10,8 14,2 6 4 15 8 NE 1024,0 20 0 0,0
17.11.2017 20:00:00 10,5 6,1 9,5 10,9 14,2 10 5 14 8 NE 1023,8 20 0 0,0
17.11.2017 19:00:00 10,9 8,3 9,6 10,9 14,2 10 5 15 8 NNE 1023,6 20 0 0,0
17.11.2017 18:00:00 11,4 8,1 10,1 10,8 14,2 9 5 19 11 NNE 1023,4 20 0 0,0
17.11.2017 17:00:00 13,5 7,9 12,3 10,6 14,3 14 7 20 11 N 1023,2 20 31 0,0
17.11.2017 16:00:00 14,2 7,3 15,1 10,4 14,2 13 7 19 10 N 1023,2 20 60 0,0
17.11.2017 15:00:00 13,8 8,0 15,5 10,0 14,2 11 6 16 9 NNW 1023,3 20 60 0,0
17.11.2017 14:00:00 14,0 7,5 19,9 9,7 14,3 10 5 16 8 N 1023,5 17 60 0,0
17.11.2017 13:00:00 13,4 6,5 19,6 9,3 14,3 7 4 10 5 NW 1023,9 19 60 0,0
17.11.2017 12:00:00 13,1 7,5 17,8 9,0 14,3 5 3 8 5 NNW 1024,3 8 60 0,0

tt = Température de l'air
td = dewpoint
tt 5cm = Température de l'air 5cm
tt -20cm = Température de l'air -20cm
tt -100cm = Température de l'air -100cm
ff = Vitesse du vent
fx = gusts
dd = Direction du vent
ppp = reduced air pressure
vv = visibility
sd = Ensoleillement
rr = Quantités de précipitations

stations d'obs. à proximité